Regional Weather Roundup
Issued by NWS

Home | Current Version | Previous Version | Text Only | Print | Product List | Glossary On
Versions: 1 2 3 4 5 6 7 8 9 10 11 12 13 14 15 16 17 18 19 20 21 22 23 24 25 26 27 28 29 30 31 32 33 34 35 36 37 38 39 40 41 42 43 44 45 46 47 48 49 50
000
ASUS44 KOUN 052010
RWROK

WEATHER ROUNDUP FOR OKLAHOMA
NATIONAL WEATHER SERVICE NORMAN OK
300 PM CDT THU MAY 05 2016

NOTE: "FAIR" INDICATES FEW OR NO CLOUDS BELOW 12,000 FEET WITH NO
      SIGNIFICANT WEATHER AND/OR OBSTRUCTIONS TO VISIBILITY.

OKZ001>007-009>012-014-015-017-052100-
NORTHWEST OKLAHOMA AND THE PANHANDLE

CITY           SKY/WX    TMP DP  RH WIND       PRES   REMARKS
GAGE           SUNNY     83  44  25 MISG      30.07F
GUYMON         SUNNY     84  41  21 S15G23    30.02F
ENID/WOODRING  SUNNY     81  43  26 NE6       30.06F
$$

OKZ016-021>023-033>039-044-045-052100-
SOUTHWEST OKLAHOMA

CITY           SKY/WX    TMP DP  RH WIND       PRES   REMARKS
LAWTON/REGL    SUNNY     81  46  29 NE5       30.07F
LAWTON/FT SILL SUNNY     80  48  32 E5        30.06F
FREDERICK      SUNNY     83  46  27 VRB7      30.03F
CLINTON        SUNNY     81  44  27 VRB5      30.09F
HOBART         SUNNY     84  46  26 SE8       30.07F
ALTUS AFB      SUNNY     82  45  27 SE9       30.06F
$$

OKZ018>020-024>031-052100-
CENTRAL OKLAHOMA

CITY           SKY/WX    TMP DP  RH WIND       PRES   REMARKS
OKLAHOMA CITY  MOSUNNY   80  41  24 N7        30.08F
OKC/WILEY POST SUNNY     79  43  27 N8        30.08F
OKC/TINKER AFB SUNNY     78  40  25 VRB1      30.07F
STILLWATER     SUNNY     80  42  25 N9G17     30.07F
GUTHRIE        SUNNY     78  41  26 VRB5      30.07F
$$

OKZ008-013-054>072-052100-
NORTHEAST OKLAHOMA

CITY           SKY/WX    TMP DP  RH WIND       PRES   REMARKS
TULSA          MOSUNNY   78  45  30 N8        30.04F
TULSA/JONES    SUNNY     79  45  29 VRB6      30.06F
PONCA CITY     SUNNY     78  43  28 CALM      30.06F
BARTLESVILLE   SUNNY     78  42  27 N7        30.07F
MUSKOGEE       SUNNY     77  43  29 N10G20    30.06F
$$

OKZ032-040>043-046>053-073>077-052100-
SOUTH CENTRAL/SOUTHEAST OKLAHOMA

CITY           SKY/WX    TMP DP  RH WIND       PRES   REMARKS
MCALESTER      PTSUNNY   77  43  29 N7        30.06F
$$




USA.gov is the U.S. government's official web portal to all federal, state and local government web resources and services.